[[{"header":{"parameterUnit":"m.s-1","parameterCategory":2,"la1":30.2991,"la2":30.254,"lo1":-89.0895,"lo2":-89.0444,"dy":0.0017,"dx":0.0017,"nx":28,"ny":28,"refTime":"2026-01-31T09:00:00:Z","depth":"0","parameterNumber":2,"parameterNumberName":"U-component_of_CURRENTS"},"data":[0,0,0,0,0,0,0,0,0,0,0,0,0,0,0,0,0,0,0,0,0,0,0,0,0,0,0,0,0,0,0,0,0,0,0,0,0,0,0,0,0,0,0,0,0,0,0,0,0,0,0,0,0,0,0,0,0,0,0.3473,0.3474,0,0.3521,0.3521,0.3521,0.351,0.351,0.3509,0.3509,0.3501,0.3501,0.3501,0,0,0,0,0,0,0,0,0,0,0,0,0,0.3371,0.3373,0.3473,0.3474,0.3475,0.3521,0.3521,0.3522,0.351,0.351,0.3509,0.3508,0.3501,0.3501,0.3501,0,0,0,0,0,0,0,0,0,0,0,0,0,0.3413,0.3373,0.3473,0.3479,0.348,0.3521,0.3521,0.3522,0.351,0.351,0.3509,0.3508,0.3501,0.3501,0.3501,0.3519,0,0,0.3503,0.3503,0,0,0,0,0,0,0,0,0.341,0.3416,0.3477,0.3478,0.348,0.3513,0.3483,0.3519,0.3511,0.3494,0.3509,0.3508,0.3503,0.3503,0.3508,0.3518,0.3518,0.3503,0.3503,0.3503,0.3503,0,0,0,0,0,0,0,0.3408,0.3414,0.3488,0.3478,0.348,0.3479,0.3483,0.349,0.3498,0.3495,0.3496,0.3509,0.3503,0.3508,0.3508,0.3518,0.3503,0.3503,0.3503,0.3503,0.3573,0.3574,0,0,0,0,0,0,0.3412,0.3411,0.3486,0.3489,0.3448,0.3482,0.3486,0.3499,0.3499,0.35,0.3509,0.3508,0.3508,0.3508,0.3508,0.3554,0.3503,0.3503,0.3504,0.3571,0.3573,0.3575,0,0,0,0,0,0,0.341,0.3418,0.3484,0.3455,0.3464,0.3485,0.3499,0.3501,0.3512,0.3511,0.351,0.352,0.3507,0.3507,0.3526,0.3553,0.3504,0.3504,0.3569,0.3572,0.3574,0.3631,0,0,0,0,0,0,0.3406,0.3417,0.3427,0.3455,0.3466,0.3519,0.35,0.3502,0.3523,0.3522,0.3519,0.3518,0.3507,0.3526,0.3527,0.3552,0.3504,0.3567,0.357,0.3573,0.3627,0.3635,0.3642,0,0,0,0,0,0.3403,0.3422,0.3427,0.3437,0.3479,0.352,0.3525,0.3534,0.3524,0.3538,0.3537,0.3518,0.3546,0.3528,0.3528,0.3554,0.3566,0.3569,0.3573,0.3623,0.3633,0.3641,0,0,0,0,0,0,0.338,0.3424,0.343,0.3461,0.3493,0.352,0.3537,0.3542,0.3553,0.3548,0.3537,0.3536,0.3566,0.3555,0.3536,0.3585,0.3553,0.3557,0.3592,0.3601,0.3608,0.3627,0.3505,0,0,0,0,0,0.3383,0.3409,0.3449,0.3474,0.3492,0.3515,0.3532,0.3541,0.3558,0.3561,0.356,0.3564,0.3582,0.3586,0.3596,0.362,0.3638,0.3639,0.3646,0.3652,0.367,0.372,0.3734,0.3587,0.3587,0.3587,0,0,0.338,0.341,0.3423,0.3472,0.3494,0.3533,0.3522,0.3556,0.3585,0.3559,0.3588,0.3591,0.3596,0.3627,0.3639,0.3619,0.3707,0.3657,0.3662,0.3677,0.3725,0.374,0.3753,0.3589,0.3589,0.3588,0,0,0.3395,0.3417,0.3446,0.3479,0.3526,0.3547,0.3561,0.3593,0.3604,0.3636,0.3631,0.3655,0.3667,0.3685,0.3695,0.3751,0.3748,0.3748,0.3796,0.3845,0.3857,0.3868,0.392,0.3936,0.3747,0.3747,0.3747,0,0.3389,0.3434,0.346,0.3502,0.3533,0.3557,0.3597,0.3621,0.3653,0.3673,0.3652,0.3707,0.3702,0.3762,0.3778,0.3769,0.3795,0.3759,0.3855,0.3866,0.3877,0.3927,0.3943,0.375,0.375,0.3749,0.3749,0,0.3429,0.3467,0.349,0.3551,0.3587,0.3626,0.3669,0.37,0.3711,0.3735,0.3789,0.3793,0.3828,0.3829,0.3818,0.3895,0.389,0.3861,0.3831,0.3895,0.3944,0.396,0.3755,0.3754,0.3753,0.3752,0,0,0.3408,0.3499,0.3506,0.3543,0.3616,0.3649,0.3709,0.3773,0.3817,0.3841,0.3901,0.3931,0.3935,0.3948,0.3943,0.3977,0.4068,0.3951,0.3952,0.4002,0.4186,0.4226,0.4247,0.4053,0.4056,0.4058,0.4194,0,0.3431,0.3508,0.3552,0.3625,0.3669,0.3718,0.3773,0.3832,0.3874,0.3936,0.3963,0.4014,0.3981,0.4001,0.4037,0.4065,0.4111,0.4035,0.4118,0.4121,0.4148,0.4268,0.4265,0.439,0.4209,0.4212,0.4214,0,0.3457,0.3507,0.3576,0.3669,0.3692,0.3736,0.3832,0.3885,0.398,0.4017,0.4081,0.4105,0.4182,0.4128,0.4231,0.4184,0.4198,0.4209,0.4214,0.4245,0.4192,0.4295,0.4425,0.4447,0.4238,0.4236,0.4235,0,0.3429,0.3527,0.3579,0.361,0.3714,0.3751,0.3805,0.3901,0.3974,0.4072,0.4143,0.4216,0.4278,0.431,0.4351,0.4295,0.4461,0.4381,0.4437,0.4439,0.4453,0.4452,0.4614,0.446,0.446,0.4459,0.4459,0,0.3438,0.348,0.3566,0.3593,0.3662,0.3734,0.3817,0.3888,0.4015,0.4106,0.4179,0.428,0.4327,0.4423,0.4417,0.4514,0.4525,0.4492,0.4495,0.4473,0.4473,0.4502,0.4485,0.4464,0.4463,0.4462,0.4461,0,0.3401,0.3458,0.3522,0.3618,0.365,0.3693,0.3829,0.3892,0.4021,0.4151,0.4195,0.437,0.4498,0.4558,0.4638,0.4627,0.4622,0.4703,0.4684,0.4684,0.4723,0.4708,0.4603,0.4438,0.4785,0.4788,0.4789,0,0.3389,0.3417,0.3517,0.3546,0.3585,0.3664,0.3718,0.3868,0.3953,0.4199,0.4264,0.4462,0.4592,0.478,0.482,0.4885,0.4718,0.4881,0.4768,0.4782,0.4767,0.4496,0.434,0.4809,0.4811,0.4812,0.4813,0,0.3356,0.3387,0.343,0.3495,0.3546,0.3612,0.3709,0.3791,0.3966,0.4108,0.4304,0.4445,0.4711,0.4823,0.4956,0.4973,0.4755,0.4911,0.4935,0.4836,0.4542,0.4366,0.4659,0.4826,0.4825,0.4824,0.4823,0.4823,0.3312,0.3325,0.3373,0.3427,0.3482,0.352,0.3526,0.3666,0.3797,0.3986,0.4214,0.443,0.4784,0.5005,0.4984,0.5084,0.4854,0.5014,0.5008,0.4738,0.4544,0.488,0.5037,0.5037,0.5037,0.5037,0.5037,0,0.3237,0.3256,0.3302,0.3337,0.3336,0.3403,0.3481,0.3474,0.3557,0.3884,0.406,0.4515,0.4773,0.5014,0.5303,0.5242,0.4892,0.5146,0.4802,0.4641,0.5018,0.4994,0.5138,0.5138,0.5137,0.5137,0.5137,0.5137,0.3192,0.3182,0.3204,0.3166,0.3181,0.3108,0.3103,0.3154,0.3349,0.3649,0.396,0.426,0.495,0.5545,0.5671,0.55,0.5063,0.4911,0.4735,0.5144,0.513,0.5116,0.5091,0.5254,0.5254,0.4177,0.4171,0.4166]},{"header":{"parameterUnit":"m.s-1","parameterCategory":2,"la1":30.2991,"la2":30.254,"lo1":-89.0895,"lo2":-89.0444,"dy":0.0017,"dx":0.0017,"nx":28,"ny":28,"refTime":"2026-01-31T09:00:00:Z","depth":"0","parameterNumber":3,"parameterNumberName":"V-component_of_CURRENTS"},"data":[0,0,0,0,0,0,0,0,0,0,0,0,0,0,0,0,0,0,0,0,0,0,0,0,0,0,0,0,0,0,0,0,0,0,0,0,0,0,0,0,0,0,0,0,0,0,0,0,0,0,0,0,0,0,0,0,0,0,-0.0203,-0.0203,0,-0.0273,-0.0274,-0.0275,-0.0332,-0.0332,-0.0333,-0.0333,-0.0419,-0.042,-0.0422,0,0,0,0,0,0,0,0,0,0,0,0,0,-0.019,-0.019,-0.0202,-0.0203,-0.0204,-0.0273,-0.0274,-0.0276,-0.0332,-0.0332,-0.0333,-0.0333,-0.0418,-0.042,-0.0423,0,0,0,0,0,0,0,0,0,0,0,0,0,-0.0223,-0.0189,-0.0202,-0.0239,-0.0243,-0.0273,-0.0274,-0.0276,-0.0332,-0.0332,-0.0333,-0.0333,-0.0417,-0.042,-0.0423,-0.0428,0,0,-0.0432,-0.0433,0,0,0,0,0,0,0,0,-0.0221,-0.0224,-0.0233,-0.0237,-0.0241,-0.0293,-0.0301,-0.0327,-0.0332,-0.03,-0.0333,-0.0334,-0.0376,-0.0383,-0.0397,-0.0432,-0.0436,-0.0432,-0.0433,-0.0435,-0.0436,0,0,0,0,0,0,0,-0.0219,-0.0221,-0.0232,-0.0234,-0.0239,-0.0277,-0.0282,-0.0307,-0.0335,-0.0303,-0.0306,-0.0311,-0.0379,-0.0394,-0.0399,-0.0437,-0.0432,-0.0434,-0.0436,-0.0437,-0.0484,-0.0483,0,0,0,0,0,0,-0.0202,-0.0218,-0.023,-0.0234,-0.023,-0.0277,-0.0282,-0.0277,-0.0335,-0.0344,-0.0311,-0.0314,-0.0389,-0.0396,-0.0402,-0.0397,-0.0435,-0.0437,-0.0439,-0.0484,-0.0484,-0.0483,0,0,0,0,0,0,-0.0201,-0.0201,-0.0227,-0.0228,-0.0233,-0.0275,-0.027,-0.0278,-0.029,-0.0341,-0.035,-0.0313,-0.039,-0.0398,-0.0416,-0.0401,-0.0439,-0.0441,-0.0485,-0.0484,-0.0483,-0.0395,0,0,0,0,0,0,-0.02,-0.02,-0.0193,-0.0226,-0.0233,-0.023,-0.0269,-0.0279,-0.0291,-0.0296,-0.0346,-0.0355,-0.0391,-0.0412,-0.0419,-0.0406,-0.0443,-0.0485,-0.0484,-0.0484,-0.0399,-0.0392,-0.0386,0,0,0,0,0,-0.0199,-0.0175,-0.0192,-0.0194,-0.022,-0.0228,-0.0235,-0.027,-0.029,-0.0285,-0.0322,-0.0353,-0.0412,-0.0413,-0.0422,-0.0409,-0.0486,-0.0485,-0.0484,-0.0402,-0.0393,-0.0386,0,0,0,0,0,0,-0.0163,-0.018,-0.0199,-0.0182,-0.02,-0.0237,-0.0236,-0.026,-0.0287,-0.0292,-0.0344,-0.0355,-0.0367,-0.04,-0.04,-0.0422,-0.0455,-0.0455,-0.039,-0.0382,-0.0375,-0.0349,-0.0446,0,0,0,0,0,-0.0152,-0.0141,-0.0167,-0.0154,-0.0159,-0.0198,-0.0207,-0.0228,-0.0255,-0.0267,-0.0304,-0.0342,-0.037,-0.0384,-0.0415,-0.0421,-0.046,-0.0421,-0.0414,-0.0408,-0.0394,-0.0445,-0.0442,-0.048,-0.048,-0.048,0,0,-0.0135,-0.0143,-0.0137,-0.0146,-0.0165,-0.0154,-0.0204,-0.0207,-0.02,-0.0271,-0.0274,-0.0319,-0.0368,-0.0378,-0.0386,-0.0402,-0.0418,-0.0407,-0.0401,-0.039,-0.0444,-0.044,-0.0437,-0.0479,-0.0479,-0.0479,0,0,-0.0086,-0.0101,-0.0074,-0.0083,-0.01,-0.012,-0.0114,-0.0146,-0.0163,-0.0173,-0.0224,-0.0255,-0.0297,-0.0329,-0.0351,-0.0325,-0.0382,-0.0339,-0.0282,-0.0332,-0.0329,-0.0327,-0.0367,-0.037,-0.0334,-0.0334,-0.0334,0,-0.0067,-0.0035,-0.0068,-0.0046,-0.0041,-0.0095,-0.0062,-0.0086,-0.012,-0.0126,-0.0159,-0.0227,-0.0272,-0.0285,-0.0281,-0.0308,-0.0345,-0.0305,-0.0322,-0.0321,-0.032,-0.0363,-0.0366,-0.0329,-0.033,-0.033,-0.0331,0,0.0,0.0023,0.004,0.0052,0.0052,0.0071,0.0039,0.0032,0.0,-0.003,-0.0056,-0.0127,-0.0165,-0.019,-0.0228,-0.0242,-0.0272,-0.0308,-0.0338,-0.0311,-0.0358,-0.0363,-0.0323,-0.0325,-0.0326,-0.0327,0,0,0.0057,0.0084,0.009,0.0119,0.0108,0.0123,0.0131,0.013,0.0145,0.0081,0.0089,0.0016,-0.0036,-0.0064,-0.0125,-0.0173,-0.0208,-0.0231,-0.0236,-0.0262,-0.0313,-0.034,-0.035,-0.025,-0.0251,-0.0251,-0.0345,0,0.0122,0.0196,0.0186,0.0256,0.0294,0.0255,0.0274,0.0258,0.0226,0.0216,0.0124,0.0104,0.0016,0.0,-0.0063,-0.0167,-0.0218,-0.0178,-0.0342,-0.0346,-0.0368,-0.0355,-0.0365,-0.0451,-0.0351,-0.0352,-0.0353,0,0.0195,0.0238,0.032,0.0374,0.0387,0.041,0.0436,0.0445,0.0402,0.0373,0.0317,0.0248,0.0174,0.0091,-0.0076,-0.0048,-0.0166,-0.0259,-0.0266,-0.0323,-0.0384,-0.0464,-0.0465,-0.077,-0.0362,-0.0361,-0.036,0,0.0267,0.0336,0.0411,0.0426,0.0467,0.0492,0.0506,0.049,0.0527,0.0469,0.0484,0.0363,0.0322,0.0153,-0.0039,-0.0058,-0.0228,-0.0282,-0.0419,-0.0423,-0.0478,-0.0485,-0.0785,-0.0399,-0.0399,-0.0399,-0.0399,0,0.0348,0.0408,0.0449,0.0489,0.0586,0.057,0.0652,0.064,0.065,0.071,0.057,0.0592,0.0335,0.0211,0.0008,-0.0213,-0.0196,-0.0401,-0.0447,-0.0447,-0.045,-0.0756,-0.0953,-0.0402,-0.0402,-0.0401,-0.04,0,0.042,0.0442,0.0536,0.0595,0.0623,0.0685,0.0771,0.0833,0.0809,0.0882,0.0878,0.077,0.0598,0.034,0.0071,-0.013,-0.0549,-0.0436,-0.0413,-0.0455,-0.087,-0.106,-0.1441,-0.1596,-0.0604,-0.0605,-0.0606,0,0.0464,0.0519,0.0621,0.069,0.0721,0.081,0.0887,0.0909,0.0993,0.1007,0.1068,0.0927,0.0869,0.0456,0.0063,-0.0299,-0.0603,-0.0556,-0.0601,-0.0893,-0.114,-0.1296,-0.141,-0.0644,-0.0645,-0.0646,-0.0647,0,0.0554,0.0583,0.0664,0.081,0.0904,0.1028,0.1138,0.124,0.1275,0.1338,0.14,0.1353,0.0943,0.0583,0.0062,-0.0221,-0.0825,-0.0587,-0.0908,-0.121,-0.1384,-0.1553,-0.0582,-0.0656,-0.0655,-0.0654,-0.0654,-0.0654,0.0621,0.0698,0.0807,0.0952,0.1073,0.124,0.1367,0.1492,0.1648,0.1771,0.1686,0.1677,0.1085,0.038,-0.007,-0.0889,-0.0919,-0.1124,-0.1331,-0.146,-0.1625,-0.0663,-0.0779,-0.0779,-0.0779,-0.0779,-0.0778,0,0.0717,0.0808,0.0947,0.1127,0.129,0.1327,0.1544,0.1678,0.1882,0.1997,0.2048,0.1766,0.1029,0.0258,-0.082,-0.1462,-0.1742,-0.1856,-0.2101,-0.218,-0.1329,-0.1343,-0.1564,-0.1564,-0.1564,-0.1563,-0.1563,-0.1563,0.077,0.0924,0.1003,0.1288,0.142,0.165,0.1786,0.1967,0.2113,0.2264,0.2283,0.2227,0.1637,-0.0417,-0.1819,-0.2183,-0.2723,-0.2878,-0.3113,-0.2553,-0.25,-0.245,-0.2507,-0.2969,-0.2971,-0.3864,-0.3874,-0.3881]}],[{"header":{"parameterUnit":"m.s-1","parameterCategory":2,"la1":30.2991,"la2":30.254,"lo1":-89.0895,"lo2":-89.0444,"dy":0.0017,"dx":0.0017,"nx":28,"ny":28,"refTime":"2026-01-31T09:00:00:Z","depth":"2","parameterNumber":2,"parameterNumberName":"U-component_of_CURRENTS"},"data":[0,0,0,0,0,0,0,0,0,0,0,0,0,0,0,0,0,0,0,0,0,0,0,0,0,0,0,0,0,0,0,0,0,0,0,0,0,0,0,0,0,0,0,0,0,0,0,0,0,0,0,0,0,0,0,0,0,0,0.3424,0.3425,0,0.3472,0.3472,0.3472,0.3462,0.3462,0.3462,0.3461,0.3455,0.3455,0.3456,0,0,0,0,0,0,0,0,0,0,0,0,0,0.3324,0.3326,0.3424,0.3425,0.3426,0.3472,0.3472,0.3472,0.3463,0.3462,0.3461,0.3461,0.3455,0.3455,0.3456,0,0,0,0,0,0,0,0,0,0,0,0,0,0.3365,0.3326,0.3424,0.343,0.3432,0.3472,0.3472,0.3472,0.3463,0.3462,0.3461,0.3461,0.3455,0.3455,0.3456,0.3472,0,0,0.3457,0.3457,0,0,0,0,0,0,0,0,0.3363,0.3368,0.3429,0.343,0.3432,0.3464,0.3435,0.3471,0.3463,0.3446,0.3461,0.346,0.3457,0.3457,0.3462,0.3471,0.3471,0.3457,0.3457,0.3457,0.3457,0,0,0,0,0,0,0,0.336,0.3366,0.3438,0.343,0.3432,0.3431,0.3435,0.3441,0.345,0.3448,0.3448,0.3461,0.3457,0.3461,0.3461,0.3471,0.3457,0.3457,0.3458,0.3458,0.3527,0.3528,0,0,0,0,0,0,0.3364,0.3364,0.3437,0.344,0.34,0.3433,0.3438,0.3451,0.3451,0.3453,0.3461,0.346,0.3461,0.3461,0.3461,0.3509,0.3457,0.3458,0.3458,0.3525,0.3527,0.3529,0,0,0,0,0,0,0.3362,0.337,0.3435,0.3406,0.3415,0.3436,0.345,0.3452,0.3464,0.3463,0.3462,0.3473,0.3461,0.3461,0.348,0.3507,0.3458,0.3458,0.3523,0.3526,0.3528,0.3585,0,0,0,0,0,0,0.3359,0.3369,0.338,0.3407,0.3417,0.3469,0.3452,0.3454,0.3475,0.3474,0.3473,0.3471,0.346,0.348,0.3481,0.3507,0.3459,0.3521,0.3524,0.3527,0.3581,0.3589,0.3596,0,0,0,0,0,0.3355,0.3374,0.338,0.3389,0.3431,0.3471,0.3476,0.3485,0.3476,0.349,0.349,0.3471,0.35,0.3482,0.3482,0.3509,0.352,0.3523,0.3527,0.3578,0.3587,0.3596,0,0,0,0,0,0,0.3334,0.3377,0.3383,0.3413,0.3445,0.3471,0.3488,0.3493,0.3505,0.3501,0.349,0.349,0.352,0.3509,0.349,0.3539,0.3507,0.3511,0.3546,0.3555,0.3562,0.3581,0.3459,0,0,0,0,0,0.3337,0.3363,0.3401,0.3426,0.3445,0.3467,0.3484,0.3493,0.351,0.3514,0.3513,0.3517,0.3536,0.354,0.355,0.3574,0.3591,0.3593,0.36,0.3606,0.3624,0.3673,0.3687,0.3541,0.3541,0.354,0,0,0.3334,0.3364,0.3376,0.3424,0.3447,0.3485,0.3475,0.3508,0.3537,0.3512,0.3541,0.3544,0.355,0.3581,0.3592,0.3573,0.366,0.3611,0.3616,0.3631,0.3678,0.3692,0.3705,0.3543,0.3543,0.3542,0,0,0.3349,0.3371,0.34,0.3433,0.3479,0.35,0.3513,0.3546,0.3557,0.3589,0.3584,0.3609,0.3621,0.3639,0.3648,0.3704,0.3701,0.3702,0.375,0.3797,0.381,0.3821,0.3872,0.3887,0.3701,0.3701,0.3701,0,0.3344,0.3388,0.3415,0.3455,0.3486,0.351,0.355,0.3573,0.3605,0.3626,0.3605,0.366,0.3655,0.3715,0.3731,0.3723,0.3748,0.3713,0.3808,0.3819,0.3829,0.3879,0.3895,0.3704,0.3704,0.3703,0.3703,0,0.3384,0.3422,0.3444,0.3504,0.354,0.3579,0.3621,0.3651,0.3664,0.3687,0.3742,0.3746,0.3781,0.3782,0.3771,0.3848,0.3843,0.3814,0.3784,0.3848,0.3896,0.3911,0.3709,0.3708,0.3707,0.3706,0,0,0.3365,0.3454,0.3461,0.3497,0.3569,0.3601,0.366,0.3723,0.3768,0.3792,0.3852,0.3882,0.3887,0.39,0.3895,0.3929,0.4019,0.3904,0.3905,0.3954,0.4136,0.4172,0.4192,0.4005,0.4007,0.401,0.4143,0,0.3388,0.3463,0.3505,0.3577,0.3621,0.3669,0.3724,0.3782,0.3824,0.3886,0.3914,0.3964,0.3932,0.3953,0.3989,0.4016,0.4062,0.3986,0.4068,0.4071,0.4094,0.4212,0.38,0.3889,0.4158,0.4161,0.4163,0,0.3414,0.3462,0.3531,0.3621,0.3644,0.3687,0.3782,0.3835,0.3929,0.3966,0.403,0.4055,0.4131,0.4079,0.418,0.4134,0.4148,0.4158,0.4163,0.419,0.4137,0.3867,0.3907,0.4189,0.4187,0.4185,0.4183,0,0.3386,0.3482,0.3534,0.3564,0.3666,0.3703,0.3757,0.3852,0.3923,0.4022,0.4092,0.4165,0.4226,0.4258,0.4298,0.4244,0.4407,0.4328,0.438,0.4381,0.4047,0.4016,0.4406,0.4406,0.4405,0.4405,0.4405,0,0.3396,0.3437,0.3522,0.3549,0.3617,0.3687,0.377,0.384,0.3966,0.4056,0.4129,0.4228,0.4275,0.437,0.4363,0.4457,0.4469,0.4434,0.4436,0.4059,0.4029,0.4288,0.4273,0.441,0.4409,0.4408,0.4407,0,0.3359,0.3415,0.3478,0.3574,0.3605,0.3648,0.3783,0.3845,0.3974,0.4101,0.4146,0.4318,0.4443,0.4502,0.458,0.4568,0.4622,0.464,0.4214,0.4167,0.454,0.4526,0.4712,0.4715,0.4717,0.4719,0.4721,0,0.3347,0.3375,0.3474,0.3503,0.3543,0.3621,0.3675,0.3823,0.3907,0.4149,0.4213,0.4408,0.4522,0.4703,0.4654,0.4692,0.4738,0.4385,0.4218,0.4597,0.458,0.4562,0.4546,0.3778,0.3771,0.3766,0.3762,0,0.3314,0.3346,0.3389,0.3453,0.3505,0.357,0.3667,0.3748,0.392,0.4046,0.4238,0.4363,0.4543,0.4416,0.4508,0.4465,0.4346,0.4294,0.4783,0.3805,0.3738,0.3715,0.3724,0.3717,0.3721,0.3725,0.3727,0.3729,0.3271,0.3284,0.3333,0.3388,0.3442,0.348,0.3485,0.3575,0.3684,0.3771,0.4045,0.4063,0.4151,0.4077,0.4004,0.3936,0.4226,0.4015,0.4019,0.4031,0.394,0.3886,0.3875,0.388,0.3884,0.3888,0.3892,0,0.3167,0.3217,0.3263,0.3298,0.3266,0.3364,0.3442,0.3359,0.3359,0.3495,0.3575,0.3347,0.3332,0.3431,0.3251,0.334,0.3182,0.323,0.2934,0.2986,0.303,0.2875,0.2534,0.2529,0.2525,0.2521,0,0,0.3114,0.3091,0.3112,0.3063,0.3107,0.2996,0.299,0.291,0.2924,0.284,0.2822,0.3048,0.3296,0.2799,0.2805,0.2631,0.2765,0.2541,0.3633,0.3331,0.3368,0.3504,0.3332,0,0,0,0,0]},{"header":{"parameterUnit":"m.s-1","parameterCategory":2,"la1":30.2991,"la2":30.254,"lo1":-89.0895,"lo2":-89.0444,"dy":0.0017,"dx":0.0017,"nx":28,"ny":28,"refTime":"2026-01-31T09:00:00:Z","depth":"2","parameterNumber":3,"parameterNumberName":"V-component_of_CURRENTS"},"data":[0,0,0,0,0,0,0,0,0,0,0,0,0,0,0,0,0,0,0,0,0,0,0,0,0,0,0,0,0,0,0,0,0,0,0,0,0,0,0,0,0,0,0,0,0,0,0,0,0,0,0,0,0,0,0,0,0,0,-0.0154,-0.0155,0,-0.0224,-0.0225,-0.0226,-0.0283,-0.0284,-0.0284,-0.0284,-0.037,-0.0371,-0.0373,0,0,0,0,0,0,0,0,0,0,0,0,0,-0.0142,-0.0142,-0.0154,-0.0155,-0.0156,-0.0224,-0.0225,-0.0226,-0.0283,-0.0284,-0.0284,-0.0285,-0.0369,-0.0371,-0.0373,0,0,0,0,0,0,0,0,0,0,0,0,0,-0.0175,-0.0142,-0.0154,-0.0191,-0.0195,-0.0224,-0.0225,-0.0227,-0.0283,-0.0284,-0.0284,-0.0285,-0.0368,-0.0371,-0.0374,-0.0378,0,0,-0.0382,-0.0383,0,0,0,0,0,0,0,0,-0.0173,-0.0175,-0.0185,-0.0189,-0.0193,-0.0244,-0.0252,-0.0278,-0.0283,-0.0251,-0.0284,-0.0285,-0.0328,-0.0334,-0.0348,-0.0382,-0.0386,-0.0383,-0.0384,-0.0385,-0.0386,0,0,0,0,0,0,0,-0.017,-0.0173,-0.0184,-0.0186,-0.019,-0.0229,-0.0234,-0.0258,-0.0286,-0.0254,-0.0258,-0.0263,-0.033,-0.0345,-0.035,-0.0387,-0.0382,-0.0385,-0.0387,-0.0388,-0.0433,-0.0433,0,0,0,0,0,0,-0.0154,-0.017,-0.0182,-0.0186,-0.0182,-0.0228,-0.0234,-0.0228,-0.0286,-0.0295,-0.0262,-0.0265,-0.034,-0.0347,-0.0353,-0.0348,-0.0385,-0.0388,-0.039,-0.0434,-0.0433,-0.0433,0,0,0,0,0,0,-0.0153,-0.0153,-0.0179,-0.0179,-0.0185,-0.0227,-0.0221,-0.0229,-0.0241,-0.0292,-0.0301,-0.0265,-0.034,-0.0349,-0.0367,-0.0352,-0.0389,-0.0392,-0.0434,-0.0433,-0.0433,-0.0346,0,0,0,0,0,0,-0.0152,-0.0153,-0.0146,-0.0177,-0.0184,-0.0181,-0.0221,-0.023,-0.0243,-0.0247,-0.0297,-0.0306,-0.0342,-0.0362,-0.037,-0.0357,-0.0394,-0.0435,-0.0434,-0.0433,-0.0349,-0.0342,-0.0336,0,0,0,0,0,-0.0151,-0.0128,-0.0144,-0.0146,-0.0172,-0.018,-0.0186,-0.0221,-0.0242,-0.0237,-0.0274,-0.0304,-0.0362,-0.0364,-0.0373,-0.036,-0.0435,-0.0434,-0.0433,-0.0352,-0.0344,-0.0336,0,0,0,0,0,0,-0.0116,-0.0132,-0.0151,-0.0134,-0.0152,-0.0189,-0.0188,-0.0212,-0.0238,-0.0244,-0.0296,-0.0306,-0.0319,-0.035,-0.0351,-0.0372,-0.0405,-0.0405,-0.034,-0.0333,-0.0326,-0.0301,-0.0396,0,0,0,0,0,-0.0105,-0.0094,-0.0119,-0.0106,-0.0112,-0.015,-0.0159,-0.018,-0.0207,-0.022,-0.0255,-0.0294,-0.0321,-0.0335,-0.0365,-0.0371,-0.041,-0.0371,-0.0364,-0.0359,-0.0344,-0.0396,-0.0392,-0.0429,-0.0429,-0.0429,0,0,-0.0088,-0.0096,-0.009,-0.0099,-0.0118,-0.0107,-0.0157,-0.0159,-0.0152,-0.0224,-0.0226,-0.0271,-0.0319,-0.0329,-0.0337,-0.0352,-0.0368,-0.0357,-0.0352,-0.0341,-0.0394,-0.0391,-0.0388,-0.0428,-0.0429,-0.0429,0,0,-0.004,-0.0055,-0.0028,-0.0036,-0.0053,-0.0073,-0.0068,-0.0099,-0.0116,-0.0126,-0.0176,-0.0208,-0.0249,-0.028,-0.0302,-0.0276,-0.0333,-0.029,-0.0233,-0.0283,-0.028,-0.0279,-0.0319,-0.0322,-0.0285,-0.0285,-0.0285,0,-0.0021,0.0011,-0.0022,0.0,0.0006,-0.0049,-0.0016,-0.004,-0.0073,-0.008,-0.0113,-0.018,-0.0224,-0.0237,-0.0233,-0.026,-0.0297,-0.0257,-0.0274,-0.0273,-0.0272,-0.0315,-0.0319,-0.028,-0.0281,-0.0281,-0.0282,0,0.0046,0.0068,0.0085,0.0097,0.0097,0.0116,0.0085,0.0078,0.0046,0.0016,-0.001,-0.0081,-0.0118,-0.0143,-0.0181,-0.0194,-0.0225,-0.026,-0.029,-0.0263,-0.031,-0.0315,-0.0274,-0.0276,-0.0277,-0.0278,0,0,0.0101,0.0129,0.0135,0.0164,0.0153,0.0168,0.0176,0.0175,0.0189,0.0126,0.0134,0.0061,0.001,-0.0018,-0.0079,-0.0126,-0.0161,-0.0184,-0.0188,-0.0216,-0.0267,-0.0296,-0.0306,-0.0204,-0.0204,-0.0204,-0.03,0,0.0165,0.024,0.023,0.03,0.0339,0.0299,0.0319,0.0303,0.027,0.026,0.0169,0.0149,0.0061,0.0045,-0.0018,-0.0121,-0.0172,-0.0132,-0.0295,-0.03,-0.0323,-0.0311,-0.0284,-0.0367,-0.0306,-0.0307,-0.0307,0,0.0238,0.0281,0.0363,0.0417,0.043,0.0453,0.0479,0.0487,0.0445,0.0415,0.036,0.0291,0.0216,0.0135,-0.0032,-0.0003,-0.0122,-0.0214,-0.0221,-0.0279,-0.0339,-0.0386,-0.038,-0.0317,-0.0316,-0.0316,-0.0315,0,0.0309,0.0379,0.0453,0.0468,0.051,0.0534,0.0548,0.0532,0.0568,0.051,0.0524,0.0404,0.0362,0.0195,0.0003,-0.0015,-0.0185,-0.0238,-0.0376,-0.038,-0.0402,-0.0407,-0.0355,-0.0355,-0.0355,-0.0354,-0.0354,0,0.039,0.0449,0.0491,0.0531,0.0626,0.0612,0.0692,0.068,0.069,0.0748,0.0609,0.0629,0.0375,0.025,0.0049,-0.0172,-0.0155,-0.0358,-0.0405,-0.0372,-0.0372,-0.0367,-0.0368,-0.0358,-0.0357,-0.0357,-0.0356,0,0.0461,0.0483,0.0576,0.0635,0.0664,0.0725,0.081,0.0871,0.0847,0.0917,0.0913,0.0804,0.0631,0.0375,0.0108,-0.0091,-0.0312,-0.0397,-0.0336,-0.0374,-0.0487,-0.0481,-0.0562,-0.0564,-0.0565,-0.0567,-0.0568,0,0.0504,0.0559,0.0661,0.0729,0.0759,0.0848,0.0924,0.0945,0.1028,0.104,0.1099,0.0956,0.0891,0.0479,0.0097,-0.0261,-0.031,-0.048,-0.0518,-0.047,-0.0508,-0.05,-0.0493,-0.0516,-0.0517,-0.0517,-0.0518,0,0.0593,0.0622,0.0703,0.0847,0.0941,0.1064,0.1172,0.1272,0.1306,0.136,0.1416,0.1362,0.0962,0.0598,0.0082,-0.0166,-0.0426,-0.0501,-0.0468,-0.0464,-0.0434,-0.0469,-0.0462,-0.0522,-0.0522,-0.0521,-0.0521,-0.0521,0.066,0.0736,0.0844,0.0987,0.1107,0.1272,0.1397,0.1494,0.1638,0.1707,0.1645,0.1535,0.1112,0.0453,0.0026,-0.0444,-0.043,-0.0604,-0.06,-0.0596,-0.0569,-0.0544,-0.0646,-0.0646,-0.0647,-0.0647,-0.0647,0,0.0763,0.0844,0.0982,0.1159,0.1318,0.1357,0.157,0.1667,0.1826,0.1838,0.1839,0.145,0.1008,0.0527,-0.0159,-0.056,-0.0589,-0.0695,-0.0639,-0.0632,-0.0627,-0.06,-0.0687,-0.0688,-0.0689,-0.069,0,0,0.0817,0.0971,0.1049,0.1319,0.1445,0.1653,0.1787,0.1893,0.1943,0.1966,0.1882,0.169,0.1134,0.0631,0.0084,-0.0299,-0.0374,-0.0381,-0.0309,-0.0173,-0.0163,-0.0541,-0.0488,0,0,0,0,0]}],[{"header":{"parameterUnit":"m.s-1","parameterCategory":2,"la1":30.2991,"la2":30.254,"lo1":-89.0895,"lo2":-89.0444,"dy":0.0017,"dx":0.0017,"nx":28,"ny":28,"refTime":"2026-01-31T09:00:00:Z","depth":"4","parameterNumber":2,"parameterNumberName":"U-component_of_CURRENTS"},"data":[0,0,0,0,0,0,0,0,0,0,0,0,0,0,0,0,0,0,0,0,0,0,0,0,0,0,0,0,0,0,0,0,0,0,0,0,0,0,0,0,0,0,0,0,0,0,0,0,0,0,0,0,0,0,0,0,0,0,0.1985,0.1986,0,0.2087,0.2088,0.2089,0.2163,0.2164,0.2165,0.2166,0.2275,0.2277,0.2279,0,0,0,0,0,0,0,0,0,0,0,0,0,0.1846,0.1848,0.1984,0.1986,0.1987,0.2087,0.2088,0.209,0.2163,0.2164,0.2165,0.2166,0.2274,0.2276,0.2279,0,0,0,0,0,0,0,0,0,0,0,0,0,0.1921,0.1848,0.1984,0.2038,0.2044,0.2087,0.2089,0.209,0.2163,0.2164,0.2165,0.2166,0.2273,0.2276,0.2279,0.2274,0,0,0.2289,0.2291,0,0,0,0,0,0,0,0,0.1916,0.1925,0.2028,0.2034,0.2041,0.2116,0.208,0.2153,0.2162,0.2115,0.2166,0.2167,0.2223,0.223,0.2243,0.2279,0.2284,0.2289,0.2291,0.2293,0.2294,0,0,0,0,0,0,0,0.1911,0.1921,0.2023,0.203,0.2038,0.2055,0.2067,0.2094,0.2159,0.2119,0.2125,0.214,0.2226,0.224,0.2246,0.2286,0.2289,0.2292,0.2294,0.2295,0.2459,0.2462,0,0,0,0,0,0,0.1903,0.1916,0.202,0.2026,0.1983,0.2057,0.207,0.2089,0.2159,0.2171,0.2139,0.2144,0.2234,0.2243,0.2251,0.2374,0.2293,0.2296,0.2298,0.2457,0.246,0.2463,0,0,0,0,0,0,0.1899,0.1911,0.2015,0.1975,0.199,0.2058,0.2078,0.209,0.2149,0.2174,0.2187,0.2192,0.2235,0.2246,0.2321,0.2374,0.2297,0.23,0.2454,0.2458,0.2461,0.254,0,0,0,0,0,0,0.1895,0.1909,0.194,0.1975,0.1992,0.207,0.2078,0.2091,0.2155,0.2162,0.2222,0.2231,0.2237,0.2317,0.2324,0.2377,0.2303,0.2451,0.2456,0.246,0.2534,0.2546,0.2556,0,0,0,0,0,0.1889,0.1919,0.194,0.1954,0.2025,0.2072,0.2083,0.2132,0.2156,0.2189,0.2238,0.2232,0.2351,0.2321,0.233,0.2384,0.2449,0.2454,0.246,0.2529,0.2543,0.2555,0,0,0,0,0,0,0.1875,0.193,0.1955,0.2001,0.2048,0.2086,0.2128,0.2156,0.2219,0.2242,0.2261,0.2274,0.2359,0.2361,0.2328,0.2446,0.24,0.2407,0.245,0.2463,0.2474,0.248,0.2305,0,0,0,0,0,0.1884,0.1928,0.1974,0.2018,0.2045,0.2094,0.2128,0.2162,0.2212,0.2243,0.2285,0.2334,0.238,0.2415,0.245,0.2513,0.252,0.2555,0.2566,0.2575,0.2587,0.264,0.2657,0.2481,0.248,0.248,0,0,0.1892,0.193,0.1957,0.202,0.2063,0.2109,0.2119,0.2185,0.2237,0.2243,0.2342,0.2375,0.2406,0.2481,0.2519,0.2496,0.2631,0.2582,0.2589,0.2597,0.2648,0.2665,0.268,0.2484,0.2484,0.2483,0,0,0.1914,0.1965,0.2004,0.2048,0.2121,0.2151,0.2179,0.2244,0.2294,0.2376,0.24,0.2469,0.2538,0.2574,0.2597,0.2688,0.2685,0.2706,0.277,0.2822,0.2836,0.2849,0.2885,0.2901,0.2713,0.2713,0.2713,0,0.1923,0.1979,0.2023,0.2071,0.2119,0.2174,0.2226,0.2279,0.2365,0.2415,0.2423,0.2555,0.2581,0.2672,0.271,0.2713,0.2738,0.2716,0.2835,0.2848,0.286,0.2893,0.291,0.2717,0.2717,0.2716,0.2716,0,0.1961,0.2024,0.2054,0.2134,0.2187,0.2246,0.2316,0.2388,0.2452,0.2503,0.2623,0.2665,0.2744,0.2765,0.277,0.2876,0.2865,0.2839,0.2798,0.2882,0.2912,0.2928,0.2724,0.2722,0.2721,0.272,0,0,0.193,0.2056,0.2072,0.2126,0.2231,0.2274,0.2375,0.2473,0.255,0.264,0.2742,0.2829,0.2865,0.2895,0.2916,0.2964,0.3069,0.295,0.2951,0.2979,0.3188,0.2999,0.2997,0.307,0.3073,0.3076,0.3176,0,0.1952,0.2045,0.2108,0.2212,0.2266,0.2357,0.2443,0.2544,0.2633,0.2743,0.2818,0.292,0.2911,0.2968,0.3019,0.3062,0.3113,0.3044,0.3109,0.311,0.2926,0.3009,0.3086,0.3188,0.3191,0.3194,0.3195,0,0.1959,0.2028,0.2125,0.2261,0.2296,0.2369,0.2521,0.2607,0.2761,0.2838,0.2952,0.3013,0.3131,0.3096,0.3218,0.318,0.3201,0.3215,0.3218,0.3023,0.2949,0.3087,0.3223,0.3221,0.3219,0.3217,0.3215,0,0.1899,0.2039,0.212,0.2167,0.2321,0.2399,0.2491,0.2642,0.2741,0.2913,0.3005,0.3128,0.3222,0.3271,0.3322,0.3289,0.3431,0.3377,0.3224,0.3211,0.3315,0.33,0.3457,0.3457,0.3456,0.3456,0.3456,0,0.1875,0.1948,0.2108,0.2151,0.2265,0.2385,0.252,0.263,0.2808,0.2918,0.3058,0.3152,0.3276,0.3368,0.3375,0.3352,0.3479,0.3252,0.3229,0.3346,0.3334,0.3326,0.3309,0.346,0.3459,0.3458,0.3458,0,0.1789,0.1897,0.1999,0.2175,0.2239,0.232,0.2536,0.2624,0.2809,0.2959,0.3029,0.3225,0.3322,0.3413,0.3502,0.3407,0.3406,0.3365,0.3508,0.349,0.3137,0.3124,0.3189,0.3183,0.3178,0.3174,0.3171,0,0.1747,0.1794,0.1988,0.2054,0.2143,0.229,0.2386,0.2599,0.2695,0.2964,0.3017,0.3206,0.3299,0.328,0.3378,0.3386,0.3343,0.3322,0.32,0.314,0.3113,0.3108,0.3101,0.3163,0.3162,0.316,0.3159,0,0.1662,0.1748,0.183,0.1964,0.2079,0.2197,0.2355,0.2417,0.2646,0.2843,0.2933,0.2994,0.3103,0.3152,0.3197,0.319,0.3318,0.327,0.3278,0.3163,0.311,0.3086,0.3086,0.3142,0.3145,0.3146,0.3147,0,0.1595,0.1627,0.1745,0.185,0.1985,0.206,0.2165,0.2281,0.2407,0.2693,0.2712,0.2896,0.3067,0.3053,0.309,0.3077,0.3013,0.2896,0.2922,0.2942,0.2812,0.2705,0.2608,0,0,0,0,0,0.1512,0.1536,0.1623,0.1729,0.1857,0.1938,0.2122,0.2231,0.2452,0.2446,0.2576,0.2654,0.2717,0.282,0.2754,0.298,0.3026,0.289,0.2905,0.3048,0.3068,0.2937,0,0,0,0,0,0,0.1456,0.1524,0.1566,0.1605,0.1655,0.1778,0.1886,0.2037,0.2053,0.2277,0.2326,0.2491,0.2593,0.2718,0.2699,0.2729,0.2683,0.3011,0.3005,0.3037,0.3055,0.3071,0.2943,0,0,0,0,0]},{"header":{"parameterUnit":"m.s-1","parameterCategory":2,"la1":30.2991,"la2":30.254,"lo1":-89.0895,"lo2":-89.0444,"dy":0.0017,"dx":0.0017,"nx":28,"ny":28,"refTime":"2026-01-31T09:00:00:Z","depth":"4","parameterNumber":3,"parameterNumberName":"V-component_of_CURRENTS"},"data":[0,0,0,0,0,0,0,0,0,0,0,0,0,0,0,0,0,0,0,0,0,0,0,0,0,0,0,0,0,0,0,0,0,0,0,0,0,0,0,0,0,0,0,0,0,0,0,0,0,0,0,0,0,0,0,0,0,0,0.0195,0.0195,0,0.0139,0.0139,0.0138,0.0097,0.0097,0.0097,0.0096,0.0025,0.0024,0.0022,0,0,0,0,0,0,0,0,0,0,0,0,0,0.0219,0.0219,0.0195,0.0195,0.0194,0.014,0.0139,0.0138,0.0097,0.0097,0.0096,0.0096,0.0026,0.0024,0.0022,0,0,0,0,0,0,0,0,0,0,0,0,0,0.019,0.0219,0.0196,0.0168,0.0165,0.014,0.0139,0.0138,0.0097,0.0097,0.0096,0.0096,0.0027,0.0024,0.0022,0.0015,0,0,0.0014,0.0013,0,0,0,0,0,0,0,0,0.0192,0.0189,0.0173,0.017,0.0166,0.0126,0.0121,0.0096,0.0097,0.0122,0.0096,0.0096,0.0058,0.0053,0.0043,0.0011,0.0008,0.0014,0.0013,0.0012,0.0011,0,0,0,0,0,0,0,0.0194,0.0191,0.0172,0.0172,0.0168,0.0142,0.0138,0.0116,0.0092,0.012,0.0117,0.0112,0.0057,0.0045,0.0041,0.0007,0.0014,0.0012,0.001,0.001,-0.0047,-0.0047,0,0,0,0,0,0,0.0206,0.0193,0.0174,0.0171,0.0179,0.0142,0.0137,0.0138,0.0093,0.0086,0.0113,0.0111,0.005,0.0044,0.0038,0.003,0.0012,0.0009,0.0008,-0.0047,-0.0047,-0.0047,0,0,0,0,0,0,0.0206,0.0205,0.0176,0.0181,0.0176,0.0143,0.0144,0.0138,0.0128,0.0088,0.008,0.011,0.0049,0.0041,0.0022,0.0027,0.0008,0.0006,-0.0047,-0.0047,-0.0047,0.0012,0,0,0,0,0,0,0.0208,0.0206,0.0211,0.0182,0.0176,0.017,0.0144,0.0137,0.0126,0.0122,0.0082,0.0075,0.0048,0.0026,0.002,0.0023,0.0004,-0.0047,-0.0047,-0.0047,0.001,0.0014,0.0017,0,0,0,0,0,0.0209,0.0223,0.0212,0.021,0.0185,0.017,0.0165,0.0139,0.0126,0.0127,0.0098,0.0077,0.0021,0.0024,0.0017,0.002,-0.0047,-0.0047,-0.0047,0.0008,0.0013,0.0017,0,0,0,0,0,0,0.0238,0.022,0.0207,0.0215,0.0196,0.0164,0.0164,0.0145,0.0122,0.012,0.008,0.0071,0.0054,0.0029,0.0033,0.0002,-0.0018,-0.0019,0.0027,0.0031,0.0034,0.0055,0.0002,0,0,0,0,0,0.0248,0.0253,0.0227,0.0234,0.0228,0.0197,0.0188,0.0171,0.0146,0.0136,0.0106,0.0074,0.0047,0.0034,0.0007,-0.0006,-0.004,-0.0011,-0.0008,-0.0004,0.0006,-0.0046,-0.0046,-0.0047,-0.0047,-0.0047,0,0,0.0262,0.0251,0.0255,0.024,0.0224,0.0227,0.019,0.0184,0.0184,0.0132,0.0124,0.0087,0.0046,0.003,0.0019,0.001,-0.0023,-0.0004,-0.0001,0.0008,-0.0046,-0.0046,-0.0046,-0.0047,-0.0047,-0.0047,0,0,0.0295,0.0283,0.03,0.0288,0.0271,0.0252,0.0254,0.0225,0.0209,0.0195,0.0155,0.0125,0.0087,0.0056,0.0036,0.0044,-0.0002,0.0031,0.0068,0.0016,0.0016,0.0016,-0.0028,-0.0033,0.0034,0.0034,0.0034,0,0.0312,0.0329,0.0301,0.0312,0.0313,0.027,0.0288,0.0266,0.0233,0.0223,0.0202,0.0137,0.01,0.0076,0.0075,0.0053,0.0018,0.0057,0.0022,0.0021,0.0019,-0.0026,-0.0032,0.0036,0.0036,0.0036,0.0036,0,0.0354,0.0367,0.0377,0.0378,0.0374,0.0382,0.0353,0.0342,0.0316,0.0288,0.0256,0.0198,0.0161,0.0138,0.011,0.0081,0.0057,0.0033,0.0015,0.0023,-0.0025,-0.0033,0.004,0.0039,0.0039,0.0038,0,0,0.0396,0.0407,0.041,0.0429,0.0412,0.0418,0.0415,0.0403,0.0406,0.0353,0.0347,0.0283,0.0243,0.0218,0.0168,0.0121,0.0074,0.0078,0.0074,0.0043,-0.0037,-0.0053,-0.0064,0.004,0.0039,0.0038,-0.0066,0,0.044,0.0483,0.0472,0.0516,0.0539,0.0505,0.051,0.0489,0.0457,0.0437,0.0362,0.0337,0.0275,0.0259,0.02,0.0108,0.0057,0.0105,-0.0047,-0.0051,-0.006,-0.0072,0.0035,-0.0072,-0.0074,-0.0075,-0.0076,0,0.0488,0.0512,0.0565,0.0595,0.0602,0.0618,0.0623,0.0619,0.057,0.0544,0.0492,0.0433,0.036,0.0306,0.015,0.0182,0.0083,0.0004,-0.0003,-0.004,-0.0081,-0.0084,-0.009,-0.0089,-0.0088,-0.0087,-0.0086,0,0.054,0.058,0.0631,0.064,0.0659,0.0677,0.0681,0.0652,0.0665,0.061,0.0609,0.0503,0.0458,0.0318,0.0154,0.015,-0.0023,-0.0051,-0.016,-0.0163,-0.0142,-0.014,-0.0161,-0.016,-0.016,-0.016,-0.016,0,0.0591,0.0635,0.0663,0.0691,0.0756,0.0738,0.0789,0.0771,0.0757,0.0774,0.0671,0.065,0.0457,0.0336,0.0178,-0.0013,-0.001,-0.0153,-0.0192,-0.0115,-0.011,-0.0148,-0.0145,-0.0164,-0.0163,-0.0162,-0.0162,0,0.0641,0.0658,0.0724,0.0763,0.0786,0.0828,0.0878,0.0905,0.0877,0.0894,0.0885,0.0763,0.0592,0.0396,0.0164,0.0028,-0.0156,-0.0225,-0.0119,-0.015,-0.0268,-0.0261,-0.0355,-0.0357,-0.0358,-0.0359,-0.036,0,0.067,0.071,0.0787,0.0833,0.0858,0.0919,0.0964,0.0968,0.0997,0.0956,0.0967,0.0823,0.0713,0.0381,0.0159,-0.0141,-0.0189,-0.0285,-0.0287,-0.026,-0.0289,-0.028,-0.0271,-0.0362,-0.0362,-0.0362,-0.0363,0,0.0725,0.0755,0.0807,0.0905,0.0971,0.1046,0.1103,0.1136,0.1126,0.1118,0.1029,0.0847,0.0651,0.0382,0.0149,-0.007,-0.0224,-0.0299,-0.0298,-0.0301,-0.027,-0.0294,-0.0285,-0.0367,-0.0366,-0.0366,-0.0366,0,0.0768,0.0812,0.0882,0.0967,0.1057,0.1127,0.1157,0.1172,0.1194,0.114,0.1106,0.088,0.075,0.0418,0.0202,-0.0013,-0.0076,-0.0153,-0.0161,-0.0159,-0.0078,-0.0007,-0.0056,0,0,0,0,0,0.0801,0.085,0.0935,0.1019,0.1109,0.1162,0.1232,0.1244,0.1241,0.1193,0.1149,0.096,0.0616,0.0465,0.0248,0.0171,-0.0112,-0.0093,-0.0204,-0.0391,-0.0386,-0.0326,0,0,0,0,0,0,0.0819,0.0903,0.0937,0.1047,0.1111,0.121,0.1255,0.1255,0.122,0.1182,0.1008,0.0905,0.0581,0.075,0.0247,0.0179,0.0076,-0.0251,-0.0256,-0.0394,-0.0389,-0.0385,-0.0322,0,0,0,0,0]}]]